📊 Raw Sensor Data
Showing records 50801 to 50825 of 85,139 total
| ID | Distance (ft) | Battery V | Battery A | Int Temp (°F) | Int Humid (%) | Ext Temp (°F) | Solar V | RSSI | SNR | Time Stamp |
|---|---|---|---|---|---|---|---|---|---|---|
| 34351 | 15.1 | 3.95 | -5 | 47 | 39 | 50 | 0.00 | -74 | 8 | 03/07/2025 09:15 PM |
| 34350 | 15.1 | 3.96 | -5 | 48 | 39 | 51 | 0.00 | -74 | 8 | 03/07/2025 09:00 PM |
| 34349 | 15.1 | 3.95 | -5 | 48 | 40 | 51 | 0.10 | -74 | 8 | 03/07/2025 08:45 PM |
| 34348 | 15.2 | 3.96 | -5 | 49 | 40 | 52 | 0.00 | -74 | 8 | 03/07/2025 08:30 PM |
| 34347 | 15.2 | 4.01 | -5 | 49 | 40 | 51 | 0.10 | -74 | 8 | 03/07/2025 08:15 PM |
| 34346 | 15.1 | 3.96 | -5 | 49 | 40 | 51 | 0.00 | -74 | 8 | 03/07/2025 08:00 PM |
| 34345 | 15.2 | 4.02 | -5 | 50 | 41 | 52 | 0.00 | -75 | 8 | 03/07/2025 07:45 PM |
| 34344 | -- | 3.96 | -5 | 50 | 41 | 52 | 0.00 | -74 | 8 | 03/07/2025 07:31 PM |
| 34343 | -- | 3.96 | -5 | 51 | 42 | 53 | 0.00 | -74 | 8 | 03/07/2025 07:15 PM |
| 34342 | 15.1 | 3.96 | -5 | 53 | 43 | 53 | 0.00 | -74 | 8 | 03/07/2025 06:45 PM |
| 34341 | 15.1 | 3.96 | -5 | 55 | 44 | 54 | 0.00 | -75 | 8 | 03/07/2025 06:30 PM |
| 34340 | 15.1 | 4.02 | -9 | 57 | 44 | 57 | 1.80 | -75 | 8 | 03/07/2025 06:15 PM |
| 34339 | 15.1 | 4.03 | 0 | 60 | 43 | 58 | 4.50 | -75 | 8 | 03/07/2025 06:00 PM |
| 34338 | 15.2 | 4.07 | 0 | 64 | 41 | 60 | 4.50 | -75 | 8 | 03/07/2025 05:45 PM |
| 34337 | 15.2 | 4.07 | 14 | 67 | 40 | 62 | 4.50 | -75 | 8 | 03/07/2025 05:30 PM |
| 34336 | 15.2 | 4.01 | 0 | 70 | 39 | 64 | 5.10 | -76 | 7 | 03/07/2025 05:00 PM |
| 34335 | 15.3 | 4.03 | 0 | 71 | 38 | 64 | 5.10 | -75 | 7 | 03/07/2025 04:45 PM |
| 34334 | 15.3 | 4.06 | 0 | 71 | 38 | 64 | 5.10 | -75 | 8 | 03/07/2025 04:30 PM |
| 34333 | 15.4 | 4.01 | 0 | 71 | 38 | 64 | 5.10 | -74 | 8 | 03/07/2025 04:15 PM |
| 34332 | 15.3 | 4.01 | 0 | 71 | 37 | 64 | 5.10 | -74 | 8 | 03/07/2025 04:00 PM |
| 34331 | 15.3 | 4.01 | 0 | 72 | 37 | 64 | 5.10 | -74 | 8 | 03/07/2025 03:45 PM |
| 34330 | 15.3 | 4.01 | 0 | 72 | 37 | 64 | 5.10 | -74 | 8 | 03/07/2025 03:30 PM |
| 34329 | 15.4 | 4.02 | 0 | 72 | 37 | 63 | 5.10 | -74 | 8 | 03/07/2025 03:15 PM |
| 34328 | 15.3 | 4.01 | 0 | 72 | 37 | 63 | 5.10 | -74 | 8 | 03/07/2025 03:00 PM |
| 34327 | 15.3 | 4.01 | 0 | 73 | 36 | 64 | 5.10 | -74 | 7 | 03/07/2025 02:45 PM |